Location: Normandy Village
(37.8755°N, 122.2655°W)
Time: 17:54:20
(UTC+00:00)

Shenzhou-11 Module - Pass Details

Date: 14 December 2019
Orbit: 302 x 315 km, 42.8° (Epoch: 24 January)

Event Time Altitude Azimuth Distance (km) Brightness Sun altitude
Rises 02:52:22 0° 280° (W) 2,066 6.9 -23.3°
Reaches altitude 10° 02:54:50 10° 257° (WSW) 1,227 5.7 -23.8°
Enters shadow 02:56:25 16° 222° (SW) 949 4.6 -24.1°
